Time,TemperatureF,DewpointF,PressureIn,WindDirection,WindDirectionDegrees,WindSpeedMPH,WindSpeedGustMPH,Humidity,HourlyPrecipIn,Conditions,Clouds,dailyrainin,SoftwareType,DateUTC
2013-12-04 08:04:00,11.0,8.0,25.67,SE,135,0.0,0.0,84,0.00,,,0.00,Rainwise IP-100,2013-12-04 16:04:00,
2013-12-04 08:09:00,10.9,8.0,25.67,SE,135,0.0,4.0,84,0.00,,,0.00,Rainwise IP-100,2013-12-04 16:09:00,
2013-12-04 08:14:00,11.0,8.0,25.67,SE,135,0.0,3.0,84,0.00,,,0.00,Rainwise IP-100,2013-12-04 16:14:00,
2013-12-04 08:19:00,11.1,8.0,25.67,SE,135,1.4,4.0,84,0.00,,,0.00,Rainwise IP-100,2013-12-04 16:19:00,
2013-12-04 08:24:00,11.0,8.0,25.68,ESE,112,1.6,4.0,85,0.00,,,0.00,Rainwise IP-100,2013-12-04 16:24:00,
2013-12-04 08:29:00,11.1,8.0,25.68,SE,135,0.0,3.0,85,0.00,,,0.00,Rainwise IP-100,2013-12-04 16:29:00,
2013-12-04 08:34:00,11.1,8.0,25.68,East,90,1.2,3.0,85,0.00,,,0.00,Rainwise IP-100,2013-12-04 16:34:00,
2013-12-04 08:39:00,11.1,8.0,25.68,SE,135,0.0,2.0,85,0.00,,,0.00,Rainwise IP-100,2013-12-04 16:39:00,
2013-12-04 08:44:00,11.0,8.0,25.68,SE,135,3.5,3.5,86,0.00,,,0.00,Rainwise IP-100,2013-12-04 16:44:00,
2013-12-04 08:49:00,11.0,8.0,25.68,SE,135,3.5,4.0,86,0.00,,,0.00,Rainwise IP-100,2013-12-04 16:49:00,
2013-12-04 08:54:00,11.1,8.0,25.68,SE,135,1.9,3.0,86,0.00,,,0.00,Rainwise IP-100,2013-12-04 16:54:00,
2013-12-04 08:59:00,11.2,8.0,25.68,SE,135,0.0,3.0,86,0.00,,,0.00,Rainwise IP-100,2013-12-04 16:59:00,
2013-12-04 09:04:00,11.3,8.0,25.68,SE,135,2.3,3.0,86,0.00,,,0.00,Rainwise IP-100,2013-12-04 17:04:00,
2013-12-04 09:09:00,11.3,8.0,25.68,SE,135,0.0,3.0,86,0.00,,,0.00,Rainwise IP-100,2013-12-04 17:09:00,
2013-12-04 09:14:00,11.4,8.0,25.68,SE,135,0.0,4.0,86,0.00,,,0.00,Rainwise IP-100,2013-12-04 17:14:00,
2013-12-04 09:19:00,11.4,8.0,25.69,SE,135,0.0,3.0,87,0.00,,,0.00,Rainwise IP-100,2013-12-04 17:19:00,
2013-12-04 09:24:00,11.4,8.0,25.69,SE,135,2.3,3.0,87,0.00,,,0.00,Rainwise IP-100,2013-12-04 17:24:00,
2013-12-04 09:29:00,11.5,11.0,25.69,SE,135,3.5,4.0,86,0.00,,,0.00,Rainwise IP-100,2013-12-04 17:29:00,
2013-12-04 09:34:00,11.6,11.0,25.69,ESE,112,0.0,4.0,86,0.00,,,0.00,Rainwise IP-100,2013-12-04 17:34:00,
2013-12-04 09:39:00,11.6,11.0,25.69,SE,135,0.0,3.0,86,0.00,,,0.00,Rainwise IP-100,2013-12-04 17:39:00,
2013-12-04 09:44:00,11.6,11.0,25.69,SE,135,0.0,1.0,87,0.00,,,0.00,Rainwise IP-100,2013-12-04 17:44:00,
2013-12-04 09:49:00,11.5,11.0,25.69,SSW,202,4.2,4.2,87,0.00,,,0.00,Rainwise IP-100,2013-12-04 17:49:00,
2013-12-04 09:54:00,11.5,11.0,25.69,SSW,202,1.2,4.0,87,0.00,,,0.00,Rainwise IP-100,2013-12-04 17:54:00,
2013-12-04 09:59:00,11.5,11.0,25.69,SSW,202,0.0,3.0,86,0.00,,,0.00,Rainwise IP-100,2013-12-04 17:59:00,
2013-12-04 10:04:00,11.5,11.0,25.69,SSW,202,1.4,4.0,87,0.00,,,0.00,Rainwise IP-100,2013-12-04 18:04:00,
2013-12-04 10:09:00,11.7,11.0,25.70,SE,135,0.0,2.0,88,0.00,,,0.00,Rainwise IP-100,2013-12-04 18:09:00,
2013-12-04 10:14:00,11.9,11.0,25.69,SSW,202,3.0,4.0,89,0.00,,,0.00,Rainwise IP-100,2013-12-04 18:14:00,
2013-12-04 10:19:00,12.1,11.0,25.70,SE,135,1.2,5.0,88,0.00,,,0.00,Rainwise IP-100,2013-12-04 18:19:00,
2013-12-04 10:24:00,12.2,11.0,25.70,South,180,0.0,2.0,87,0.00,,,0.00,Rainwise IP-100,2013-12-04 18:24:00,
2013-12-04 10:29:00,12.4,11.0,25.70,SSW,202,0.0,3.0,88,0.00,,,0.00,Rainwise IP-100,2013-12-04 18:29:00,
2013-12-04 10:34:00,12.4,11.0,25.69,SSW,202,1.2,4.0,88,0.00,,,0.00,Rainwise IP-100,2013-12-04 18:34:00,
2013-12-04 10:39:00,12.5,11.0,25.69,SSW,202,3.0,5.0,87,0.00,,,0.00,Rainwise IP-100,2013-12-04 18:39:00,
2013-12-04 10:44:00,12.5,11.0,25.69,SSW,202,4.7,4.7,86,0.00,,,0.00,Rainwise IP-100,2013-12-04 18:44:00,
2013-12-04 10:49:00,12.6,11.0,25.68,SSW,202,3.5,6.0,85,0.00,,,0.00,Rainwise IP-100,2013-12-04 18:49:00,
2013-12-04 10:54:00,12.7,11.0,25.69,SSW,202,2.8,7.0,85,0.00,,,0.00,Rainwise IP-100,2013-12-04 18:54:00,
2013-12-04 10:59:00,12.7,11.0,25.69,SSW,202,2.6,7.0,84,0.00,,,0.00,Rainwise IP-100,2013-12-04 18:59:00,
2013-12-04 11:04:00,12.8,11.0,25.69,SSW,202,2.8,5.0,85,0.00,,,0.00,Rainwise IP-100,2013-12-04 19:04:00,
2013-12-04 11:09:00,13.4,11.0,25.68,South,180,2.3,5.0,86,0.00,,,0.00,Rainwise IP-100,2013-12-04 19:09:00,
2013-12-04 11:14:00,14.1,11.0,25.68,South,180,0.0,4.0,86,0.00,,,0.00,Rainwise IP-100,2013-12-04 19:14:00,
2013-12-04 11:19:00,14.8,14.0,25.68,South,180,2.8,3.0,84,0.00,,,0.00,Rainwise IP-100,2013-12-04 19:19:00,
2013-12-04 11:24:00,15.4,11.0,25.68,SE,135,2.1,2.1,83,0.00,,,0.00,Rainwise IP-100,2013-12-04 19:24:00,
2013-12-04 11:29:00,15.7,11.0,25.68,South,180,1.4,4.0,82,0.00,,,0.00,Rainwise IP-100,2013-12-04 19:29:00,
2013-12-04 11:34:00,15.9,11.0,25.68,South,180,6.1,6.1,81,0.00,,,0.00,Rainwise IP-100,2013-12-04 19:34:00,
2013-12-04 11:39:00,16.2,11.0,25.68,SSW,202,2.1,6.0,80,0.00,,,0.00,Rainwise IP-100,2013-12-04 19:39:00,
2013-12-04 11:44:00,16.3,11.0,25.68,SSW,202,5.8,6.0,80,0.00,,,0.00,Rainwise IP-100,2013-12-04 19:44:00,
2013-12-04 11:49:00,16.4,11.0,25.68,SSW,202,6.1,6.1,79,0.00,,,0.00,Rainwise IP-100,2013-12-04 19:49:00,
2013-12-04 11:54:00,16.6,14.0,25.69,SSW,202,3.3,6.0,78,0.00,,,0.00,Rainwise IP-100,2013-12-04 19:54:00,
2013-12-04 11:59:00,16.8,14.0,25.68,SSW,202,4.7,6.0,78,0.00,,,0.00,Rainwise IP-100,2013-12-04 19:59:00,
2013-12-04 12:04:00,16.8,14.0,25.68,SSW,202,4.7,6.0,78,0.00,,,0.00,Rainwise IP-100,2013-12-04 20:04:00,
2013-12-04 12:09:00,16.6,14.0,25.69,SSW,202,5.1,6.0,77,0.00,,,0.00,Rainwise IP-100,2013-12-04 20:09:00,
2013-12-04 12:14:00,16.7,14.0,25.69,SSW,202,6.3,7.0,77,0.00,,,0.00,Rainwise IP-100,2013-12-04 20:14:00,
2013-12-04 12:19:00,17.0,14.0,25.69,SSW,202,4.2,8.0,77,0.00,,,0.00,Rainwise IP-100,2013-12-04 20:19:00,
2013-12-04 12:24:00,17.1,14.0,25.68,SSW,202,4.2,6.0,76,0.00,,,0.00,Rainwise IP-100,2013-12-04 20:24:00,
2013-12-04 12:29:00,17.3,14.0,25.69,SSW,202,4.0,6.0,76,0.00,,,0.00,Rainwise IP-100,2013-12-04 20:29:00,
2013-12-04 12:34:00,17.4,14.0,25.69,SSW,202,6.1,6.1,75,0.00,,,0.00,Rainwise IP-100,2013-12-04 20:34:00,
2013-12-04 12:39:00,17.3,14.0,25.68,SSW,202,5.4,6.0,76,0.00,,,0.00,Rainwise IP-100,2013-12-04 20:39:00,
2013-12-04 12:44:00,17.3,14.0,25.68,SSW,202,3.7,5.0,77,0.00,,,0.00,Rainwise IP-100,2013-12-04 20:44:00,
2013-12-04 12:49:00,17.6,14.0,25.68,SSW,202,1.9,4.0,76,0.00,,,0.00,Rainwise IP-100,2013-12-04 20:49:00,
2013-12-04 12:54:00,18.0,14.0,25.68,SSW,202,4.0,4.0,75,0.00,,,0.00,Rainwise IP-100,2013-12-04 20:54:00,
2013-12-04 12:59:00,18.3,14.0,25.68,SSW,202,2.8,6.0,75,0.00,,,0.00,Rainwise IP-100,2013-12-04 20:59:00,
2013-12-04 13:04:00,18.7,14.0,25.68,SSW,202,3.7,5.0,75,0.00,,,0.00,Rainwise IP-100,2013-12-04 21:04:00,
2013-12-04 13:09:00,19.3,14.0,25.68,SSW,202,3.3,5.0,73,0.00,,,0.00,Rainwise IP-100,2013-12-04 21:09:00,
2013-12-04 13:14:00,19.7,14.0,25.69,SSW,202,4.0,5.0,73,0.00,,,0.00,Rainwise IP-100,2013-12-04 21:14:00,
2013-12-04 13:19:00,20.0,14.0,25.69,SSW,202,5.6,5.6,72,0.00,,,0.00,Rainwise IP-100,2013-12-04 21:19:00,
2013-12-04 13:24:00,19.9,14.0,25.69,SSW,202,3.7,5.0,72,0.00,,,0.00,Rainwise IP-100,2013-12-04 21:24:00,
2013-12-04 13:29:00,19.7,14.0,25.69,SSW,202,2.1,6.0,72,0.00,,,0.00,Rainwise IP-100,2013-12-04 21:29:00,
2013-12-04 13:34:00,19.4,14.0,25.68,SSW,202,3.5,6.0,73,0.00,,,0.00,Rainwise IP-100,2013-12-04 21:34:00,
2013-12-04 13:39:00,19.2,14.0,25.68,South,180,1.2,6.0,74,0.00,,,0.00,Rainwise IP-100,2013-12-04 21:39:00,
2013-12-04 13:44:00,19.2,14.0,25.68,South,180,1.4,5.0,74,0.00,,,0.00,Rainwise IP-100,2013-12-04 21:44:00,
2013-12-04 13:49:00,19.4,14.0,25.68,SSW,202,2.1,3.0,74,0.00,,,0.00,Rainwise IP-100,2013-12-04 21:49:00,
2013-12-04 13:54:00,19.5,14.0,25.68,SSW,202,2.6,4.0,74,0.00,,,0.00,Rainwise IP-100,2013-12-04 21:54:00,
2013-12-04 13:59:00,19.2,14.0,25.68,SSW,202,0.0,3.0,74,0.00,,,0.00,Rainwise IP-100,2013-12-04 21:59:00,
2013-12-04 14:04:00,19.0,14.0,25.68,SSW,202,2.3,4.0,75,0.00,,,0.00,Rainwise IP-100,2013-12-04 22:04:00,
2013-12-04 14:09:00,18.7,14.0,25.68,SSW,202,3.7,4.0,74,0.00,,,0.00,Rainwise IP-100,2013-12-04 22:09:00,
2013-12-04 14:14:00,18.5,14.0,25.68,SSW,202,3.7,4.0,75,0.00,,,0.00,Rainwise IP-100,2013-12-04 22:14:00,
2013-12-04 14:19:00,18.4,14.0,25.68,SSW,202,4.2,4.2,76,0.00,,,0.00,Rainwise IP-100,2013-12-04 22:19:00,
2013-12-04 14:24:00,18.0,14.0,25.68,SSW,202,3.0,4.0,77,0.00,,,0.00,Rainwise IP-100,2013-12-04 22:24:00,
2013-12-04 14:29:00,17.5,14.0,25.67,SSW,202,5.6,6.0,79,0.00,,,0.00,Rainwise IP-100,2013-12-04 22:29:00,
2013-12-04 14:34:00,17.1,14.0,25.68,SSW,202,4.0,6.0,80,0.00,,,0.00,Rainwise IP-100,2013-12-04 22:34:00,
2013-12-04 14:39:00,17.0,14.0,25.68,SSW,202,3.0,5.0,80,0.00,,,0.00,Rainwise IP-100,2013-12-04 22:39:00,
2013-12-04 14:44:00,17.4,14.0,25.68,SSW,202,3.5,4.0,80,0.00,,,0.00,Rainwise IP-100,2013-12-04 22:44:00,
2013-12-04 14:49:00,17.6,14.0,25.68,SSW,202,1.6,4.0,80,0.00,,,0.00,Rainwise IP-100,2013-12-04 22:49:00,
2013-12-04 14:54:00,17.6,14.0,25.68,SSW,202,0.0,3.0,80,0.00,,,0.00,Rainwise IP-100,2013-12-04 22:54:00,
2013-12-04 14:59:00,17.6,14.0,25.68,SSW,202,1.6,2.0,81,0.00,,,0.00,Rainwise IP-100,2013-12-04 22:59:00,
2013-12-04 15:04:00,17.7,14.0,25.68,SSW,202,0.0,2.0,80,0.00,,,0.00,Rainwise IP-100,2013-12-04 23:04:00,
2013-12-04 15:09:00,17.7,14.0,25.68,SSW,202,0.0,1.0,80,0.00,,,0.00,Rainwise IP-100,2013-12-04 23:09:00,
2013-12-04 15:14:00,17.7,14.0,25.68,SSW,202,0.0,1.0,79,0.00,,,0.00,Rainwise IP-100,2013-12-04 23:14:00,
2013-12-04 15:19:00,17.9,14.0,25.68,SSW,202,0.0,0.0,80,0.00,,,0.00,Rainwise IP-100,2013-12-04 23:19:00,
2013-12-04 15:24:00,17.7,14.0,25.68,SSW,202,1.4,3.0,80,0.00,,,0.00,Rainwise IP-100,2013-12-04 23:24:00,
2013-12-04 15:29:00,17.4,14.0,25.68,SSW,202,2.6,3.0,82,0.00,,,0.00,Rainwise IP-100,2013-12-04 23:29:00,
2013-12-04 15:34:00,17.2,14.0,25.68,SSW,202,3.3,4.0,82,0.00,,,0.00,Rainwise IP-100,2013-12-04 23:34:00,
2013-12-04 15:39:00,16.9,14.0,25.67,SSW,202,2.8,3.0,83,0.00,,,0.00,Rainwise IP-100,2013-12-04 23:39:00,
2013-12-04 15:44:00,16.8,14.0,25.67,SSW,202,1.4,3.0,83,0.00,,,0.00,Rainwise IP-100,2013-12-04 23:44:00,
2013-12-04 15:49:00,16.6,14.0,25.67,SSW,202,0.0,1.0,84,0.00,,,0.00,Rainwise IP-100,2013-12-04 23:49:00,
2013-12-04 15:54:00,16.2,14.0,25.67,SSW,202,0.0,1.0,84,0.00,,,0.00,Rainwise IP-100,2013-12-04 23:54:00,
2013-12-04 15:59:00,16.0,14.0,25.67,SSW,202,0.0,1.0,86,0.00,,,0.00,Rainwise IP-100,2013-12-04 23:59:00,
2013-12-04 16:04:00,15.7,14.0,25.67,SSW,202,0.0,2.0,87,0.00,,,0.00,Rainwise IP-100,2013-12-05 00:04:00,
2013-12-04 16:09:00,15.3,14.0,25.67,SSW,202,0.0,0.0,87,0.00,,,0.00,Rainwise IP-100,2013-12-05 00:09:00,
2013-12-04 16:14:00,14.9,14.0,25.67,SSW,202,0.0,3.0,87,0.00,,,0.00,Rainwise IP-100,2013-12-05 00:14:00,
2013-12-04 16:19:00,14.7,14.0,25.67,SSW,202,0.0,0.0,87,0.00,,,0.00,Rainwise IP-100,2013-12-05 00:19:00,
2013-12-04 16:24:00,14.4,11.0,25.67,SSW,202,1.6,3.0,87,0.00,,,0.00,Rainwise IP-100,2013-12-05 00:24:00,
2013-12-04 16:29:00,13.9,11.0,25.67,SSW,202,0.0,2.0,87,0.00,,,0.00,Rainwise IP-100,2013-12-05 00:29:00,
2013-12-04 16:34:00,13.5,11.0,25.67,SSW,202,0.0,3.0,88,0.00,,,0.00,Rainwise IP-100,2013-12-05 00:34:00,
2013-12-04 16:39:00,13.2,11.0,25.67,SSW,202,0.0,4.0,88,0.00,,,0.00,Rainwise IP-100,2013-12-05 00:39:00,
2013-12-04 16:44:00,13.0,11.0,25.67,SSW,202,0.0,0.0,88,0.00,,,0.00,Rainwise IP-100,2013-12-05 00:44:00,
2013-12-04 16:49:00,12.9,11.0,25.67,SSE,157,0.0,1.0,89,0.00,,,0.00,Rainwise IP-100,2013-12-05 00:49:00,
2013-12-04 16:54:00,12.7,11.0,25.68,SSE,157,1.4,2.0,89,0.00,,,0.00,Rainwise IP-100,2013-12-05 00:54:00,
2013-12-04 16:59:00,12.5,11.0,25.67,South,180,2.6,2.6,89,0.00,,,0.00,Rainwise IP-100,2013-12-05 00:59:00,
2013-12-04 17:04:00,12.4,11.0,25.67,South,180,0.0,2.0,89,0.00,,,0.00,Rainwise IP-100,2013-12-05 01:04:00,
2013-12-04 17:09:00,12.3,11.0,25.68,South,180,0.0,1.0,89,0.00,,,0.00,Rainwise IP-100,2013-12-05 01:09:00,
2013-12-04 17:14:00,12.4,11.0,25.68,South,180,0.0,1.0,90,0.00,,,0.00,Rainwise IP-100,2013-12-05 01:14:00,
2013-12-04 17:19:00,12.4,11.0,25.68,SSW,202,2.8,3.0,89,0.00,,,0.00,Rainwise IP-100,2013-12-05 01:19:00,
2013-12-04 17:24:00,12.4,11.0,25.68,SSW,202,0.0,3.0,89,0.00,,,0.00,Rainwise IP-100,2013-12-05 01:24:00,
2013-12-04 17:29:00,12.3,11.0,25.68,SSW,202,0.0,0.0,89,0.00,,,0.00,Rainwise IP-100,2013-12-05 01:29:00,
2013-12-04 17:34:00,12.1,11.0,25.67,SSW,202,0.0,0.0,89,0.00,,,0.00,Rainwise IP-100,2013-12-05 01:34:00,
2013-12-04 17:39:00,12.1,11.0,25.68,SSW,202,0.0,0.0,90,0.00,,,0.00,Rainwise IP-100,2013-12-05 01:39:00,
2013-12-04 17:44:00,12.0,11.0,25.68,SSW,202,0.0,0.0,90,0.00,,,0.00,Rainwise IP-100,2013-12-05 01:44:00,
2013-12-04 17:49:00,11.9,11.0,25.68,SSW,202,0.0,0.0,91,0.00,,,0.00,Rainwise IP-100,2013-12-05 01:49:00,
2013-12-04 17:54:00,11.8,11.0,25.67,SSW,202,0.0,0.0,91,0.00,,,0.00,Rainwise IP-100,2013-12-05 01:54:00,
2013-12-04 17:59:00,11.8,11.0,25.67,SSW,202,0.0,0.0,91,0.00,,,0.00,Rainwise IP-100,2013-12-05 01:59:00,
2013-12-04 18:04:00,11.8,11.0,25.67,SSW,202,1.6,3.0,91,0.00,,,0.00,Rainwise IP-100,2013-12-05 02:04:00,
2013-12-04 18:09:00,12.0,11.0,25.67,SSE,157,1.9,2.0,91,0.00,,,0.00,Rainwise IP-100,2013-12-05 02:09:00,
2013-12-04 18:14:00,12.3,11.0,25.66,SSE,157,0.0,2.0,91,0.00,,,0.00,Rainwise IP-100,2013-12-05 02:14:00,
2013-12-04 18:19:00,12.4,11.0,25.66,SSE,157,0.0,0.0,92,0.00,,,0.00,Rainwise IP-100,2013-12-05 02:19:00,
2013-12-04 18:24:00,12.4,11.0,25.67,SSE,157,0.0,0.0,91,0.00,,,0.00,Rainwise IP-100,2013-12-05 02:24:00,
2013-12-04 18:29:00,12.5,11.0,25.67,SSE,157,0.0,0.0,91,0.00,,,0.00,Rainwise IP-100,2013-12-05 02:29:00,
2013-12-04 18:34:00,12.4,11.0,25.67,SSE,157,0.0,0.0,91,0.00,,,0.00,Rainwise IP-100,2013-12-05 02:34:00,
2013-12-04 18:39:00,12.4,11.0,25.67,SSE,157,0.0,0.0,91,0.00,,,0.00,Rainwise IP-100,2013-12-05 02:39:00,
2013-12-04 18:44:00,12.6,11.0,25.67,SSE,157,0.0,1.0,92,0.00,,,0.00,Rainwise IP-100,2013-12-05 02:44:00,
2013-12-04 18:49:00,12.8,11.0,25.67,SSE,157,0.0,0.0,92,0.00,,,0.00,Rainwise IP-100,2013-12-05 02:49:00,
2013-12-04 18:54:00,13.0,11.0,25.67,SSE,157,0.0,0.0,91,0.00,,,0.00,Rainwise IP-100,2013-12-05 02:54:00,
2013-12-04 18:59:00,13.1,11.0,25.68,SSE,157,0.0,1.0,91,0.00,,,0.00,Rainwise IP-100,2013-12-05 02:59:00,
2013-12-04 19:04:00,13.2,11.0,25.66,SSE,157,0.0,0.0,92,0.00,,,0.00,Rainwise IP-100,2013-12-05 03:04:00,
2013-12-04 19:09:00,13.2,11.0,25.67,SSE,157,0.0,1.0,91,0.00,,,0.00,Rainwise IP-100,2013-12-05 03:09:00,
2013-12-04 19:14:00,13.2,11.0,25.67,SSE,157,0.0,0.0,90,0.00,,,0.00,Rainwise IP-100,2013-12-05 03:14:00,
2013-12-04 19:19:00,13.3,11.0,25.67,SSE,157,0.0,0.0,90,0.00,,,0.00,Rainwise IP-100,2013-12-05 03:19:00,
2013-12-04 19:24:00,13.3,11.0,25.67,SSW,202,0.0,1.0,89,0.00,,,0.00,Rainwise IP-100,2013-12-05 03:24:00,
2013-12-04 19:29:00,13.2,11.0,25.66,SSW,202,0.0,2.0,89,0.00,,,0.00,Rainwise IP-100,2013-12-05 03:29:00,
2013-12-04 19:34:00,13.2,11.0,25.67,SSW,202,0.0,3.0,88,0.00,,,0.00,Rainwise IP-100,2013-12-05 03:34:00,
2013-12-04 19:39:00,13.1,11.0,25.67,SSW,202,1.6,4.0,87,0.00,,,0.00,Rainwise IP-100,2013-12-05 03:39:00,
2013-12-04 19:44:00,13.0,11.0,25.67,SSW,202,0.0,2.0,87,0.00,,,0.00,Rainwise IP-100,2013-12-05 03:44:00,
2013-12-04 19:49:00,12.9,11.0,25.67,SSW,202,3.7,5.0,86,0.00,,,0.00,Rainwise IP-100,2013-12-05 03:49:00,
2013-12-04 19:54:00,12.7,11.0,25.67,SSW,202,1.4,6.0,86,0.00,,,0.00,Rainwise IP-100,2013-12-05 03:54:00,
2013-12-04 19:59:00,12.5,11.0,25.67,SSW,202,1.4,4.0,86,0.00,,,0.00,Rainwise IP-100,2013-12-05 03:59:00,
2013-12-04 20:04:00,12.5,11.0,25.67,South,180,0.0,1.0,87,0.00,,,0.00,Rainwise IP-100,2013-12-05 04:04:00,
2013-12-04 20:09:00,12.4,11.0,25.67,SSE,157,0.0,1.0,87,0.00,,,0.00,Rainwise IP-100,2013-12-05 04:09:00,
2013-12-04 20:14:00,12.3,11.0,25.67,South,180,0.0,2.0,86,0.00,,,0.00,Rainwise IP-100,2013-12-05 04:14:00,
2013-12-04 20:19:00,12.1,11.0,25.67,SE,135,0.0,1.0,86,0.00,,,0.00,Rainwise IP-100,2013-12-05 04:19:00,
2013-12-04 20:24:00,11.9,11.0,25.67,SE,135,0.0,1.0,87,0.00,,,0.00,Rainwise IP-100,2013-12-05 04:24:00,
2013-12-04 20:29:00,11.7,11.0,25.67,SE,135,0.0,2.0,87,0.00,,,0.00,Rainwise IP-100,2013-12-05 04:29:00,
2013-12-04 20:34:00,11.5,11.0,25.67,SSW,202,0.0,3.0,88,0.00,,,0.00,Rainwise IP-100,2013-12-05 04:34:00,
2013-12-04 20:39:00,11.4,8.0,25.67,ESE,112,1.6,4.0,88,0.00,,,0.00,Rainwise IP-100,2013-12-05 04:39:00,
2013-12-04 20:44:00,11.3,8.0,25.67,ESE,112,1.2,1.2,88,0.00,,,0.00,Rainwise IP-100,2013-12-05 04:44:00,
2013-12-04 20:49:00,11.2,8.0,25.67,SSE,157,0.0,2.0,88,0.00,,,0.00,Rainwise IP-100,2013-12-05 04:49:00,
2013-12-04 20:54:00,11.0,8.0,25.68,SSE,157,0.0,2.0,89,0.00,,,0.00,Rainwise IP-100,2013-12-05 04:54:00,
2013-12-04 20:59:00,10.7,8.0,25.67,SSE,157,0.0,1.0,89,0.00,,,0.00,Rainwise IP-100,2013-12-05 04:59:00,
2013-12-04 21:01:00,10.7,8.0,25.67,SSW,202,3.5,3.5,89,0.00,,,0.00,Rainwise IP-100,2013-12-05 05:01:00,
2013-12-04 21:06:00,10.4,8.0,25.67,SSW,202,0.0,5.0,89,0.00,,,0.00,Rainwise IP-100,2013-12-05 05:06:00,
2013-12-04 21:11:00,10.2,8.0,25.67,SSW,202,0.0,3.0,89,0.00,,,0.00,Rainwise IP-100,2013-12-05 05:11:00,
2013-12-04 21:16:00,10.0,8.0,25.67,SSW,202,0.0,3.0,89,0.00,,,0.00,Rainwise IP-100,2013-12-05 05:16:00,
2013-12-04 21:21:00,9.8,8.0,25.67,South,180,0.0,1.0,89,0.00,,,0.00,Rainwise IP-100,2013-12-05 05:21:00,
2013-12-04 21:26:00,9.7,8.0,25.67,South,180,0.0,2.0,90,0.00,,,0.00,Rainwise IP-100,2013-12-05 05:26:00,
2013-12-04 21:31:00,9.4,8.0,25.67,South,180,0.0,1.0,89,0.00,,,0.00,Rainwise IP-100,2013-12-05 05:31:00,
2013-12-04 21:36:00,9.3,8.0,25.67,South,180,0.0,3.0,90,0.00,,,0.00,Rainwise IP-100,2013-12-05 05:36:00,
2013-12-04 21:41:00,9.1,8.0,25.67,SSW,202,0.0,3.0,90,0.00,,,0.00,Rainwise IP-100,2013-12-05 05:41:00,
2013-12-04 21:46:00,9.0,8.0,25.67,SSW,202,0.0,0.0,90,0.00,,,0.00,Rainwise IP-100,2013-12-05 05:46:00,
2013-12-04 21:51:00,9.0,8.0,25.67,SSW,202,1.6,0.0,90,0.00,,,0.00,Rainwise IP-100,2013-12-05 05:51:00,
2013-12-04 21:56:00,8.8,8.0,25.67,SSW,202,0.0,2.0,90,0.00,,,0.00,Rainwise IP-100,2013-12-05 05:56:00,
2013-12-04 22:01:00,8.6,8.0,25.67,SSW,202,0.0,0.0,90,0.00,,,0.00,Rainwise IP-100,2013-12-05 06:01:00,
2013-12-04 22:06:00,8.5,8.0,25.67,SSW,202,0.0,0.0,91,0.00,,,0.00,Rainwise IP-100,2013-12-05 06:06:00,
2013-12-04 22:11:00,8.4,4.0,25.66,SSE,157,2.1,2.1,91,0.00,,,0.00,Rainwise IP-100,2013-12-05 06:11:00,
2013-12-04 22:16:00,8.5,8.0,25.66,SSE,157,0.0,2.0,91,0.00,,,0.00,Rainwise IP-100,2013-12-05 06:16:00,
2013-12-04 22:21:00,8.5,8.0,25.66,SSE,157,0.0,1.0,91,0.00,,,0.00,Rainwise IP-100,2013-12-05 06:21:00,
2013-12-04 22:26:00,8.5,8.0,25.66,SSE,157,0.0,1.0,91,0.00,,,0.00,Rainwise IP-100,2013-12-05 06:26:00,
2013-12-04 22:31:00,8.4,4.0,25.66,SSE,157,0.0,1.0,91,0.00,,,0.00,Rainwise IP-100,2013-12-05 06:31:00,
2013-12-04 22:36:00,8.4,4.0,25.66,SSE,157,0.0,2.0,91,0.00,,,0.00,Rainwise IP-100,2013-12-05 06:36:00,
2013-12-04 22:41:00,8.4,4.0,25.66,SSE,157,0.0,1.0,91,0.00,,,0.00,Rainwise IP-100,2013-12-05 06:41:00,
2013-12-04 22:46:00,8.3,4.0,25.66,SSE,157,0.0,1.0,91,0.00,,,0.00,Rainwise IP-100,2013-12-05 06:46:00,
2013-12-04 22:51:00,8.1,4.0,25.66,SSE,157,0.0,0.0,91,0.00,,,0.00,Rainwise IP-100,2013-12-05 06:51:00,
2013-12-04 22:56:00,8.1,4.0,25.66,SSE,157,0.0,1.0,91,0.00,,,0.00,Rainwise IP-100,2013-12-05 06:56:00,
2013-12-04 23:01:00,8.2,8.0,25.66,SSE,157,0.0,2.0,92,0.00,,,0.00,Rainwise IP-100,2013-12-05 07:01:00,
2013-12-04 23:06:00,8.4,4.0,25.66,South,180,0.0,3.0,91,0.00,,,0.00,Rainwise IP-100,2013-12-05 07:06:00,
2013-12-04 23:11:00,8.5,8.0,25.66,SSW,202,0.0,2.0,91,0.00,,,0.00,Rainwise IP-100,2013-12-05 07:11:00,
2013-12-04 23:16:00,8.5,8.0,25.66,South,180,0.0,2.0,90,0.00,,,0.00,Rainwise IP-100,2013-12-05 07:16:00,
2013-12-04 23:21:00,8.5,8.0,25.66,SSW,202,2.3,3.0,91,0.00,,,0.00,Rainwise IP-100,2013-12-05 07:21:00,
2013-12-04 23:26:00,8.6,8.0,25.66,SSW,202,0.0,4.0,90,0.00,,,0.00,Rainwise IP-100,2013-12-05 07:26:00,
2013-12-04 23:32:00,8.7,8.0,25.66,SSW,202,0.0,1.0,90,0.00,,,0.00,Rainwise IP-100,2013-12-05 07:32:00,
2013-12-04 23:37:00,8.8,8.0,25.66,SSW,202,1.6,0.0,91,0.00,,,0.00,Rainwise IP-100,2013-12-05 07:37:00,
2013-12-04 23:42:00,9.0,8.0,25.66,SSW,202,0.0,2.0,91,0.00,,,0.00,Rainwise IP-100,2013-12-05 07:42:00,
2013-12-04 23:47:00,9.2,8.0,25.66,SSW,202,0.0,1.0,91,0.00,,,0.00,Rainwise IP-100,2013-12-05 07:47:00,
2013-12-04 23:52:00,9.4,8.0,25.66,SSW,202,0.0,1.0,90,0.00,,,0.00,Rainwise IP-100,2013-12-05 07:52:00,
2013-12-04 23:57:00,9.5,8.0,25.66,SSE,157,0.0,0.0,90,0.00,,,0.00,Rainwise IP-100,2013-12-05 07:57:00,